Погода Балкашино

Погода Балкашино : погода сейчас, прогноз погоды и архив. Всё, что Вы хотите узнать о погоде Балкашино!

Поиск расширенной информации на нашем сайте:

Другие новости

Новости СМИ2

Главная страница сайта

Новости сайта

03.07.2017

Напоминаем, что на нашем специализированном сайте Метеоцентр.Азия вы можете получить высокодетализированные автоматические прогнозы погоды по пунктам России, СНГ и мира в авиационном формате (включающие направление и скорость ветра, видимость, явления погоды, количество и форму облачности, нижнюю и верхнюю границу облачности).


Погода Балкашино - сегодня

Время (UTC), дата Ветер
(°,м/с) 
Видим.   Явления Облачность Т
(°С)
Тd
(°С)
f(%) Тe
(°С)
Pmin
(гПа)
dP
(гПа)
Po
(мм)
O2
(г/м3)
Тmin Tmax R s Состояние
почвы
12 08.12.17 160 (Ю) 20000 м    10/0 средняя 
[Ac und]
-6 -10.3 72 -6  1017.1  -2.1  725  300           
15 08.12.17 150 (ЮВ) н/о    10/0 средняя 
[Ac und]
-5.6 -10.6 68 -8  1015  -1.9  724  299    -5.4       
18 08.12.17 150 (ЮВ) н/о    9/0 средняя 
[Ac lent]
-4 -9.3 67 -5  1012.7  -1.9  722  296    -5.4       
21 08.12.17 130 (ЮВ) н/о    8/0 средняя 
[Ac lent]
-4 -8.4 71 -4  1009.7  -2.8  720  295           
00 09.12.17 130 (ЮВ) н/о    9/0 средняя 
[Ac lent]
-4.2 -7.9 75 -7  1007.1  -2.5  718  295           
06 09.12.17 170 (Ю) 20000 м    10/10 300 м 
[St]
-4.8 -6.1 91 -8  1007.5  0.8  719  295  -5.7         
09 09.12.17 200 (Ю) 20000 м  в посл. час снег  10/10 300 м 
[St]
-3.4 -5.1 88 -8  1007.6  0.4  719  294           
12 09.12.17 190 (Ю) 4000 м  слаб. снег  10/10 300 м 
[St]
-5.3 -6.7 90 -10  1009.8  1.7  720  297           
00 10.12.17 180 (Ю) н/о  {снег}  10/5 600 м средняя 
[Sc|As trans]
-7 -9.4 83 -11  1011.7  -0.1  721  299           
03 10.12.17 170 (Ю) 20000 м  слаб. снег  10/5 300 м средняя 
[St|As op]
-7.5 -8.8 90 -10  1012.1  0.3  721  300      0.2  11  равномерный
сухой снег
100% 
06 10.12.17 180 (Ю) 4000 м  слаб. снег  10/0 средняя 
[As op]
-7.4 -8.7 90 -10  1012.8  0.7  722  300  -7.6    0.2     
09 10.12.17 200 (Ю) 4000 м  снег  10/0 средняя 
[As op]
-6.9 -8.1 91 -10  1012.8  0.1  722  299           
12 10.12.17 180 (Ю) 4000 м  слаб. снег  10/0 средняя 
[As op]
-9.1 -10.2 92 -9  1015.3  724  303           
18 10.12.17 тихо ()   н/о  {снег}  6/0 средняя 
[Ac trans]
-16.2 -17.2 92 -16  1019.6  1.3  726  312    -6.9  0.7     
21 10.12.17 тихо ()   н/о  слаб. снег  10/0 средняя 
[As op]
-13.4 -14.4 92 -13  1020.6  1.5  727  309           
00 11.12.17 300 (СЗ) н/о  слаб. снег  10/0 средняя 
[As op]
-9.5 -10.7 91 -9  1021.3  1.4  728  305           
03 11.12.17 330 (СЗ) 20000 м  слаб. снег  10/0 средняя 
[As op]
-10.2 -11.7 89 -13  1023.4  1.8  729  306      0.7  12  равномерный
сухой снег
100% 
06 11.12.17 310 (СЗ) 20000 м  в посл. час снег  10/4 300 м средняя 
[St|Ac As]
-9.2 -11.7 82 -13  1024.6  1.4  730  306  -16.7    0.7     
09 11.12.17 280 (З) 20000 м  позёмок  10/3 300 м верхняя 
[St|Cc]
-10.6 -13.4 80 -15  1026  731  308           
18 11.12.17 340 (С) н/о  снежные кристаллы  4/0 верхняя 
[Ci fib]
-15.2 -16.6 89 -17  1031  1.2  734  314    -9.2  0.0     
21 11.12.17 тихо ()   н/о    3/0 верхняя 
[Ci fib]
-17.4 -18.8 89 -17  1032.3  0.8  734  318           
03 12.12.17 тихо ()   20000 м  снежные кристаллы  8/0 верхняя 
[Cs]
-18.2 -19.4 90 -18  1035.6  1.8  737  319      0.0  12  равномерный
сухой снег
100% 
06 12.12.17 340 (С) 20000 м    6/0 верхняя 
[Cc]
-17 -18.3 90 -19  1037  1.6  738  318  -20.5    0.0     
09 12.12.17 340 (С) 20000 м    ясно 
-14.6 -16 89 -18  1037.8  1.2  739  316           
12 12.12.17 тихо ()   20000 м    ясно 
-17 -18.4 89 -17  1039.8  1.5  740  319           
Время (UTC), дата Ветер
(°,м/с) 
Видим.   Явления Облачность Т
(°С)
Тd
(°С)
f(%) Тe
(°С)
Pmin
(гПа)
dP
(гПа)
Po
(мм)
O2
(г/м3)
Тmin Tmax R s Состояние
почвы

Для получения пояснительной информации подведите курсор к названию столбца.

ПОГОДА Балкашино - архив

Всё, что Вы хотите узнать о погоде Балкашино - удобно и подробно!

Выберите нужную дату (начиная с 1 января 2015* года) и нажмите кнопку "Найти".
Будут отображены архивные сводки погоды по пункту Балкашино, начиная с указанной даты.


Отображать данные в формате CSV (для использования в таблицах Excel)


Внимание! Наш архив погоды предназначен исключительно для личного некоммерческого использования в познавательных целях. Если Вам необходимы официальные справки о состоянии погоды (для производственных, юридических, коммерческих и т.п. целей), обращайтесь в органы Росгидромета.

*Примечание: данная дата относится к архиву по метеостанциям СССР (Россия, СНГ, Балтия).
Архив по метеостанциям Зарубежной Европы и Азии (кроме Китая) хранится 10 дней, по другим регионам земного шара (Китай, Африка, Америка, Австралия, Океания) - 1 день.

Балкашино - район местоположения метеостанции


Название, широта, долгота, высота метеостанции:
Балкашино 52.5°ш. 68.8°д. 398 м над ур. моря [Казахстан]

Дополнительная информация

В oтличие oт бoльшинства пoгoдных сайтoв мы публикуем пoдрoбную метеoинфoрмацию в детальнoм прoфессиoнальнoм фoрмате.

Характеристики температуры и влажнoсти вoздуха измеряются на высoте 2 м в тени вдали oт зданий и деревьев.
Скoрoсть ветра измеряется на высoте 10 м (на урoвне рoста челoвека скoрoсть ветра ниже в 1.5-2 раза). Если метеoстанция нахoдится в гoрoде или в лесу, тo скoрoсть ветра занижена на 2-4 м/с пo сравнению с oткрытым местoм. Скoрoсть ветра над акватoриями крупных рек и oзёр, а также на вершинах хoлмoв на 2-5 м/с выше, чем в oбычных услoвиях.
Атмoсфернoе давление в разных тoчках местнoсти мoжет значительнo oтличаться oт давления на метеoстанции, в зависимoсти oт услoвий рельефа (при пoдъёме на 10 м давление пoнижается примернo на 1 мм рт.ст.).